Content
SEND FEEDBACK

Daily
Averages
Monthly
Summary
United States of America

INARAJAN, GUAM


Home > North America > United States > Guam
Elevation: 280 feet     Latitude: 13 18N     Longitude: 144 44E

WEATHER
 
SELECT A DAY
Number of Records: 341,716;   Date Range: 1/1/95 - 7/22/14
 
SHARE

PRINT THIS DATA

[ ← Previous Day ]
WEATHER ALMANAC - APRIL 7, 2013
[ Next Day → ]
[ °C ]   °F
Weather ElementAverageHighLow
Temperature79.4 °F83.8 °F (12:55 pm)75.2 °F (1:55 am)
Dewpoint71.5 °F73.6 °F (2:55 pm)69.4 °F (4:55 am)
Humidity76.7 %84 % (5:55 am)66 % (11:55 am)
Barometer29.80 in29.85 in (10:55 pm)29.75 in (3:55 pm)
Wind Speed9.4 mph12.7 mph (12:55 pm)
Weather ElementAverage
Visibility9.5 mi
Wind DirectionESE (99.6 °)

Weather ElementTotal
Precipitation---
Cooling Degree Days14.5 (Base 65)
Growing Degree Days29.5 (Base 50)
Averaged from 23 records on April 7, 2013
WEATHER CONDITIONS BREAKOUT
WIND DIRECTION BREAKOUT
WEATHER BY HOUR - APRIL 7, 2013
[ °C ]   °F
Local TimeTemperatureDewpointHumidityBarometerVisibilityWind DirectionWind SpeedGust SpeedPrecipitationEventsConditions
1:55 AM75.2 °F69.8 °F83 %29.79 in6.2 miEast (100°)5.8 mphClear
2:55 AM75.2 °F69.8 °F83 %29.78 in6.2 miEast (90°)9.2 mphClear
3:55 AM75.2 °F69.8 °F83 %29.77 in6.2 miEast (100°)8.1 mphClear
4:55 AM75.2 °F69.4 °F82 %29.77 in10.0 miEast (100°)8.1 mphClear
5:55 AM75.4 °F70.2 °F84 %29.78 in10.0 miESE (110°)8.1 mphPartly Cloudy
6:55 AM77.2 °F71.1 °F81 %29.80 in10.0 miEast (100°)9.2 mphClear
7:55 AM78.6 °F71.2 °F78 %29.82 in10.0 miEast (100°)9.2 mphClear
8:55 AM81.0 °F72.1 °F74 %29.84 in10.0 miESE (110°)9.2 mphPartly Cloudy
9:55 AM82.0 °F72.0 °F71 %29.84 in10.0 miEast (100°)10.4 mphClear
10:55 AM82.9 °F71.4 °F68 %29.83 in10.0 miESE (110°)11.5 mphClear
11:55 AM83.5 °F71.2 °F66 %29.81 in10.0 miEast (100°)11.5 mphPartly Cloudy
12:55 PM83.8 °F72.5 °F69 %29.80 in10.0 miEast (100°)12.7 mphScattered Clouds
1:55 PM83.7 °F72.0 °F68 %29.77 in10.0 miESE (110°)12.7 mphClear
2:55 PM83.5 °F73.6 °F72 %29.76 in10.0 miEast (100°)11.5 mphClear
3:55 PM83.1 °F72.5 °F70 %29.75 in10.0 miESE (120°)11.5 mphClear
4:55 PM82.6 °F72.3 °F71 %29.76 in10.0 miEast (100°)11.5 mphPartly Cloudy
5:55 PM80.6 °F72.1 °F75 %29.78 in10.0 miESE (110°)10.4 mphClear
6:55 PM78.8 °F72.5 °F81 %29.79 in10.0 miEast (100°)8.1 mphScattered Clouds
7:55 PM78.1 °F71.8 °F81 %29.81 in10.0 miEast (90°)5.8 mphPartly Cloudy
8:55 PM78.1 °F72.5 °F83 %29.83 in10.0 miEast (90°)6.9 mphPartly Cloudy
9:55 PM78.1 °F72.0 °F81 %29.84 in10.0 miEast (80°)9.2 mphPartly Cloudy
10:55 PM77.7 °F70.5 °F78 %29.85 in10.0 miEast (90°)8.1 mphClear
11:55 PM77.4 °F71.8 °F83 %29.84 in10.0 miEast (80°)8.1 mphPartly Cloudy
Hourly data recorded from PGUA, located miles away from Inarajan, Guam







STORIES FROM OUR PARTNERS